{"data":{"norad_id":58532,"intl_designator":"2023-192B","name":"STARLINK-31035","alt_names":[],"object_type":"PAYLOAD","status":"ACTIVE","operator":null,"country":"US","launch_date":"2023-12-08","launch_site_code":"AFWTR","launch_vehicle":null,"mission":null,"orbit_class":"UNKNOWN","rcs_meters":null,"size_class":null,"mass_kg":null,"dimensions":null,"purposes":["comms"],"wikipedia_slug":null,"has_3d_model":false,"image_url":null,"decayed_at":null,"tle_current":{"epoch":"2026-05-25T03:07:08.976000Z","epoch_age_seconds":74203,"freshness":"FRESH","line1":"1 58532U 23192B   26145.12996500 -.00002077  00000+0 -58084-4 0  9996","line2":"2 58532  53.1615  54.5275 0001152 101.0862 259.0268 15.30172185137872","mean_motion":15.30172185,"eccentricity":0.0001152,"inclination_deg":53.1615,"raan_deg":54.5275,"arg_perigee_deg":101.0862,"mean_anomaly_deg":259.0268,"bstar":-5.8084e-5,"rev_number":13787,"period_min":94.107056324514,"perigee_km":474.50860552772,"apogee_km":476.08763697966,"semimajor_km":6853.4351212537,"source":"CELESTRAK","updated_at":"2026-05-25T13:38:18.660301Z"}}}